GW2381 Weather Reports


time (UTC)temp
C
wind
direction
speed
KPH
gust
KPH
rain 1hr
cm
rain 24hr
cm
rain mn
cm
humidity
%
barometer
mb
20260505065622 14 109 4.8 4.8 0.00 0.00 0.00 57 1006.0
20260505065119 14 136 8.0 9.7 0.00 0.00 0.00 57 1006.0
20260505064616 14 146 3.2 3.2 0.00 0.00 0.00 56 1006.1
20260505064114 15 143 3.2 3.2 0.00 0.00 0.00 55 1006.1
20260505063611 15 154 3.2 3.2 0.00 0.00 0.00 55 1006.3
20260505063107 15 144 4.8 4.8 0.00 0.00 0.00 55 1006.3
20260505062603 14 206 11.3 12.9 0.00 0.00 0.00 55 1006.2
20260505062101 14 185 3.2 4.8 0.00 0.00 0.00 55 1006.0
20260505061558 15 172 1.6 3.2 0.00 0.00 0.00 55 1006.0
20260505061056 15 186 4.8 8.0 0.00 0.00 0.00 55 1005.7
20260505060553 15 166 6.4 8.0 0.00 0.00 0.00 54 1005.6
20260505060050 15 151 4.8 4.8 0.00 0.00 0.00 54 1005.6
20260505055545 15 213 3.2 3.2 0.00 0.00 0.00 54 1005.6
20260505055042 15 166 4.8 4.8 0.00 0.00 0.00 54 1005.6
20260505054539 15 212 3.2 3.2 0.00 0.00 0.00 53 1005.4
20260505054038 15 180 3.2 3.2 0.00 0.00 0.00 52 1005.3
20260505053534 15 193 3.2 3.2 0.00 0.00 0.00 51 1005.2
20260505053031 15 201 1.6 3.2 0.00 0.00 0.00 51 1005.0
20260505052528 15 199 1.6 1.6 0.00 0.00 0.00 50 1004.8
20260505052025 15 199 0.0 1.6 0.00 0.00 0.00 50 1004.7
20260505051522 15 194 1.6 1.6 0.00 0.00 0.00 50 1004.7
20260505051020 15 193 1.6 1.6 0.00 0.00 0.00 50 1005.0
20260505050518 15 196 1.6 1.6 0.00 0.00 0.00 48 1005.0
20260505041445 17 172 4.8 4.8 0.00 0.00 0.00 44 1004.3
20260505040943 17 164 4.8 8.0 0.00 0.00 0.00 44 1004.3
20260505040440 17 131 4.8 4.8 0.00 0.00 0.00 43 1004.0
20260505035937 17 173 3.2 4.8 0.00 0.00 0.00 41 1003.8
20260505035433 17 132 1.6 1.6 0.00 0.00 0.00 41 1004.0
20260505034931 17 169 1.6 3.2 0.00 0.00 0.00 41 1003.7
20260505034427 17 149 1.6 3.2 0.00 0.00 0.00 41 1003.8
20260505033924 17 198 1.6 1.6 0.00 0.00 0.00 41 1003.7
20260505033421 17 192 1.6 1.6 0.00 0.00 0.00 40 1003.7
20260505032919 17 202 1.6 1.6 0.00 0.00 0.00 39 1003.5
20260505032416 17 203 0.0 1.6 0.00 0.00 0.00 38 1003.3
20260505031912 17 204 0.0 0.0 0.00 0.00 0.00 38 1003.3
20260505031409 17 204 0.0 0.0 0.00 0.00 0.00 37 1003.1
20260505030906 17 203 0.0 0.0 0.00 0.00 0.00 37 1003.3
20260505030402 18 203 0.0 0.0 0.00 0.00 0.00 36 1003.0
20260505025857 18 204 1.6 3.2 0.00 0.00 0.00 35 1003.0
20260505025355 18 208 1.6 1.6 0.00 0.00 0.00 35 1002.7
20260505024854 18 215 1.6 1.6 0.00 0.00 0.00 35 1002.9
20260505024351 18 216 0.0 1.6 0.00 0.00 0.00 35 1002.7
20260505023848 18 218 3.2 3.2 0.00 0.00 0.00 34 1002.6
20260505023345 18 210 1.6 1.6 0.00 0.00 0.00 34 1002.6
20260505022842 19 208 1.6 3.2 0.00 0.00 0.00 33 1002.6
20260505022339 19 182 1.6 1.6 0.00 0.00 0.00 33 1002.8
20260505021836 19 201 1.6 1.6 0.00 0.00 0.00 33 1002.7
20260505021333 20 213 1.6 1.6 0.00 0.00 0.00 33 1002.7
20260505020828 20 196 3.2 3.2 0.00 0.00 0.00 32 1002.8
20260505020324 20 225 8.0 9.7 0.00 0.00 0.00 32 1002.7
20260505015821 20 185 1.6 1.6 0.00 0.00 0.00 31 1002.6
20260505015318 21 184 1.6 3.2 0.00 0.00 0.00 31 1002.7
20260505014816 21 192 4.8 4.8 0.00 0.00 0.00 30 1002.6
20260505014313 21 173 3.2 4.8 0.00 0.00 0.00 29 1002.2
20260505013809 21 187 1.6 3.2 0.00 0.00 0.00 29 1002.2
20260505013306 21 199 4.8 4.8 0.00 0.00 0.00 29 1002.3
20260505012805 21 193 1.6 3.2 0.00 0.00 0.00 28 1002.6
20260505012304 21 196 3.2 3.2 0.00 0.00 0.00 27 1002.3
20260505011758 21 164 3.2 4.8 0.00 0.00 0.00 27 1002.6
20260505011255 22 183 3.2 4.8 0.00 0.00 0.00 27 1002.7
20260505010750 22 138 4.8 8.0 0.00 0.00 0.00 27 1002.6
20260505010247 22 198 3.2 3.2 0.00 0.00 0.00 28 1002.8
20260505005743 22 197 3.2 3.2 0.00 0.00 0.00 28 1002.7
20260505005240 22 206 3.2 3.2 0.00 0.00 0.00 27 1002.7
20260505004737 22 206 4.8 4.8 0.00 0.00 0.00 28 1002.9
20260505004233 22 211 4.8 4.8 0.00 0.00 0.00 28 1002.8
20260505003731 22 208 9.7 11.3 0.00 0.00 0.00 28 1003.0
20260505003229 22 221 1.6 3.2 0.00 0.00 0.00 28 1003.0
20260505002725 22 121 6.4 11.3 0.00 0.00 0.00 28 1002.9
20260505002222 22 148 8.0 12.9 0.00 0.00 0.00 27 1003.1
20260505001720 22 158 6.4 11.3 0.00 0.00 0.00 29 1003.1
20260505001217 22 215 11.3 12.9 0.00 0.00 0.00 29 1003.0
20260505000714 22 213 9.7 12.9 0.00 0.00 0.00 29 1003.0
20260505000212 22 155 3.2 3.2 0.00 0.00 0.00 29 1003.2
20260504235708 22 216 17.7 24.1 0.00 0.00 0.00 25 1003.1
20260504235204 22 187 11.3 14.5 0.00 0.00 0.00 26 1003.1
20260504234702 22 242 19.3 27.4 0.00 0.00 0.00 27 1003.3
20260504234159 22 208 14.5 20.9 0.00 0.00 0.00 27 1003.2
20260504233654 22 209 16.1 20.9 0.00 0.00 0.00 25 1003.1
20260504233150 22 228 6.4 8.0 0.00 0.00 0.00 26 1003.2
20260504232648 22 205 11.3 12.9 0.00 0.00 0.00 27 1003.1
20260504232145 22 193 8.0 9.7 0.00 0.00 0.00 25 1003.0
20260504231642 22 215 8.0 11.3 0.00 0.00 0.00 24 1003.1
20260504231138 22 256 4.8 9.7 0.00 0.00 0.00 26 1003.0
20260504230634 22 215 9.7 20.9 0.00 0.00 0.00 24 1003.2
20260504230133 22 225 4.8 4.8 0.00 0.00 0.00 25 1003.2
20260504225631 22 243 6.4 8.0 0.00 0.00 0.00 27 1003.2
20260504225127 22 252 12.9 14.5 0.00 0.00 0.00 27 1003.2
20260504224624 22 206 14.5 17.7 0.00 0.00 0.00 27 1003.2
20260504224121 23 224 9.7 12.9 0.00 0.00 0.00 27 1003.3
20260504223618 22 211 6.4 9.7 0.00 0.00 0.00 29 1003.3
20260504223114 22 217 6.4 8.0 0.00 0.00 0.00 27 1003.5
20260504222611 22 270 8.0 11.3 0.00 0.00 0.00 27 1003.1
20260504222108 22 205 11.3 20.9 0.00 0.00 0.00 28 1003.1
20260504221605 23 201 4.8 9.7 0.00 0.00 0.00 28 1003.3
20260504221102 23 172 11.3 14.5 0.00 0.00 0.00 21 1003.3
20260504220558 23 278 6.4 8.0 0.00 0.00 0.00 23 1003.3
20260504220055 23 238 4.8 4.8 0.00 0.00 0.00 23 1003.1
20260504215552 23 286 4.8 4.8 0.00 0.00 0.00 23 1003.2
20260504215050 24 275 3.2 3.2 0.00 0.00 0.00 23 1003.2
20260504214545 23 222 6.4 8.0 0.00 0.00 0.00 25 1003.3
20260504214042 24 257 3.2 3.2 0.00 0.00 0.00 23 1003.6
20260504213538 24 198 3.2 4.8 0.00 0.00 0.00 23 1003.7
20260504213035 25 252 6.4 8.0 0.00 0.00 0.00 21 1003.8
20260504212531 25 267 4.8 9.7 0.00 0.00 0.00 22 1003.8
20260504212029 24 208 4.8 4.8 0.00 0.00 0.00 21 1003.9
20260504211525 24 227 8.0 9.7 0.00 0.00 0.00 20 1004.0
20260504211022 23 275 4.8 4.8 0.00 0.00 0.00 22 1003.9
20260504210519 25 304 4.8 4.8 0.00 0.00 0.00 21 1004.3
20260504210016 23 247 6.4 9.7 0.00 0.00 0.00 24 1003.9
20260504205514 23 284 1.6 1.6 0.00 0.00 0.00 23 1004.1
20260504205012 23 262 1.6 3.2 0.00 0.00 0.00 24 1004.1
20260504204510 23 331 6.4 9.7 0.00 0.00 0.00 23 1004.3
20260504204008 23 312 4.8 4.8 0.00 0.00 0.00 22 1004.5
20260504203506 24 259 1.6 3.2 0.00 0.00 0.00 21 1004.4
20260504203003 23 294 3.2 3.2 0.00 0.00 0.00 23 1004.4
20260504202458 24 210 4.8 8.0 0.00 0.00 0.00 24 1004.7
20260504201955 23 259 0.0 1.6 0.00 0.00 0.00 22 1004.7
20260504201453 23 269 8.0 11.3 0.00 0.00 0.00 22 1004.6
20260504200950 23 259 8.0 9.7 0.00 0.00 0.00 23 1004.8
20260504200447 22 305 8.0 8.0 0.00 0.00 0.00 23 1004.8
20260504195943 22 305 6.4 8.0 0.00 0.00 0.00 23 1004.6
20260504195439 23 303 8.0 9.7 0.00 0.00 0.00 24 1004.8
20260504194936 23 318 8.0 9.7 0.00 0.00 0.00 24 1004.7
20260504194432 22 293 4.8 8.0 0.00 0.00 0.00 26 1004.7
20260504193928 23 272 6.4 8.0 0.00 0.00 0.00 27 1005.0
20260504193425 23 260 8.0 11.3 0.00 0.00 0.00 27 1005.0
20260504192924 22 302 4.8 9.7 0.00 0.00 0.00 27 1004.9
20260504192421 23 316 11.3 14.5 0.00 0.00 0.00 27 1004.9
20260504191920 23 264 4.8 4.8 0.00 0.00 0.00 25 1004.9
20260504191418 23 273 3.2 3.2 0.00 0.00 0.00 29 1005.3
20260504190913 23 306 11.3 11.3 0.00 0.00 0.00 26 1005.0
20260504190409 23 304 9.7 16.1 0.00 0.00 0.00 27 1005.2
20260504185906 23 210 3.2 4.8 0.00 0.00 0.00 25 1005.4
20260504185403 23 245 4.8 4.8 0.00 0.00 0.00 25 1005.3
20260504184858 23 271 4.8 4.8 0.00 0.00 0.00 26 1005.5
20260504184354 22 242 3.2 3.2 0.00 0.00 0.00 24 1005.6
20260504183850 22 209 4.8 4.8 0.00 0.00 0.00 25 1005.3
20260504183348 23 235 1.6 1.6 0.00 0.00 0.00 26 1005.4
20260504182845 22 308 4.8 4.8 0.00 0.00 0.00 25 1005.7
20260504182343 22 305 9.7 12.9 0.00 0.00 0.00 27 1005.6
20260504181839 22 248 4.8 4.8 0.00 0.00 0.00 26 1005.7
20260504181337 22 263 8.0 9.7 0.00 0.00 0.00 26 1005.7
20260504180836 22 161 0.0 1.6 0.00 0.00 0.00 28 1005.7
20260504180334 22 162 3.2 3.2 0.00 0.00 0.00 27 1005.6
20260504175832 22 92 1.6 3.2 0.00 0.00 0.00 29 1005.8
20260504175328 22 177 4.8 4.8 0.00 0.00 0.00 28 1006.0
20260504174826 22 135 4.8 8.0 0.00 0.00 0.00 28 1006.3
20260504174323 22 216 4.8 11.3 0.00 0.00 0.00 29 1006.0
20260504173820 21 153 1.6 3.2 0.00 0.00 0.00 28 1006.1
20260504173317 22 276 4.8 4.8 0.00 0.00 0.00 30 1006.3
20260504172814 21 186 0.0 1.6 0.00 0.00 0.00 29 1006.1
20260504172311 21 95 3.2 3.2 0.00 0.00 0.00 29 1006.4
20260504171807 22 97 6.4 9.7 0.00 0.00 0.00 29 1006.1
20260504171304 22 172 0.0 1.6 0.00 0.00 0.00 29 1006.3
20260504170801 21 224 1.6 1.6 0.00 0.00 0.00 31 1006.2
20260504170258 20 218 0.0 0.0 0.00 0.00 0.00 30 1006.4
20260504160216 20 139 6.4 9.7 0.00 0.00 0.00 35 1006.3
20260504151144 18 150 3.2 3.2 0.00 0.00 0.00 38 1006.7
20260504150642 18 132 4.8 8.0 0.00 0.00 0.00 38 1006.6
20260504150138 18 175 1.6 1.6 0.00 0.00 0.00 37 1006.7
20260504141107 17 139 6.4 8.0 0.00 0.00 0.00 39 1007.1
20260504140604 17 166 1.6 3.2 0.00 0.00 0.00 40 1006.6
20260504130528 15 140 3.2 4.8 0.00 0.00 0.00 39 1006.9
20260504110415 13 134 0.0 1.6 0.00 0.00 0.00 43 1006.7
20260504100332 12 168 0.0 0.0 0.00 0.00 0.00 43 1006.5
20260504081726 12 306 0.0 0.0 0.00 0.00 0.00 39 1005.6
20260504081222 12 306 0.0 0.0 0.00 0.00 0.00 38 1005.6
20260504080718 12 306 0.0 0.0 0.00 0.00 0.00 36 1005.6
20260504080215 13 292 1.6 1.6 0.00 0.00 0.00 36 1005.6
20260504070142 13 87 1.6 1.6 0.00 0.00 0.00 33 1005.8